Time,TemperatureF,DewpointF,PressureIn,WindDirection,WindDirectionDegrees,WindSpeedMPH,WindSpeedGustMPH,Humidity,HourlyPrecipIn,Conditions,Clouds,dailyrainin,SoftwareType,DateUTC
2013-03-31 00:26:00,57.7,45.0,29.93,SW,219,3.0,-999.0,62,-99.99,,,0.00,weatherlink.com 1.10,2013-03-31 05:26:00,
2013-03-31 00:41:00,58.0,45.0,29.95,SW,224,0.0,-999.0,62,-99.99,,,0.00,weatherlink.com 1.10,2013-03-31 05:41:00,
2013-03-31 00:56:00,56.4,45.0,29.95,SW,225,6.0,-999.0,67,-99.99,,,0.00,weatherlink.com 1.10,2013-03-31 05:56:00,
2013-03-31 01:11:00,52.8,40.0,29.95,NE,36,9.0,-999.0,63,-99.99,,,0.00,weatherlink.com 1.10,2013-03-31 06:11:00,
2013-03-31 01:26:00,53.8,42.0,29.94,NE,40,4.0,-999.0,64,-99.99,,,0.06,weatherlink.com 1.10,2013-03-31 06:26:00,
2013-03-31 01:41:00,53.8,42.0,29.94,North,11,0.0,-999.0,64,-99.99,,,0.15,weatherlink.com 1.10,2013-03-31 06:41:00,
2013-03-31 01:56:00,53.2,41.0,29.91,ENE,74,0.0,-999.0,64,-99.99,,,0.16,weatherlink.com 1.10,2013-03-31 06:56:00,
2013-03-31 02:11:00,53.7,42.0,29.93,ENE,76,0.0,-999.0,65,-99.99,,,0.16,weatherlink.com 1.10,2013-03-31 07:11:00,
2013-03-31 02:26:00,54.0,42.0,29.93,ENE,76,0.0,-999.0,65,-99.99,,,0.16,weatherlink.com 1.10,2013-03-31 07:26:00,
2013-03-31 02:41:00,54.5,42.0,29.91,ENE,76,0.0,-999.0,64,-99.99,,,0.16,weatherlink.com 1.10,2013-03-31 07:41:00,
2013-03-31 02:56:00,53.9,43.0,29.90,ENE,76,0.0,-999.0,68,-99.99,,,0.16,weatherlink.com 1.10,2013-03-31 07:56:00,
2013-03-31 03:11:00,54.1,44.0,29.90,East,90,0.0,-999.0,68,-99.99,,,0.16,weatherlink.com 1.10,2013-03-31 08:11:00,
2013-03-31 03:26:00,54.7,43.0,29.89,East,94,0.0,-999.0,64,-99.99,,,0.16,weatherlink.com 1.10,2013-03-31 08:26:00,
2013-03-31 03:41:00,54.8,43.0,29.89,East,94,0.0,-999.0,64,-99.99,,,0.16,weatherlink.com 1.10,2013-03-31 08:41:00,
2013-03-31 03:56:00,56.0,44.0,29.88,East,94,0.0,-999.0,65,-99.99,,,0.16,weatherlink.com 1.10,2013-03-31 08:56:00,
2013-03-31 04:11:00,56.4,44.0,29.87,East,94,0.0,-999.0,64,-99.99,,,0.16,weatherlink.com 1.10,2013-03-31 09:11:00,
2013-03-31 04:26:00,56.4,44.0,29.86,East,94,0.0,-999.0,64,-99.99,,,0.16,weatherlink.com 1.10,2013-03-31 09:26:00,
2013-03-31 04:41:00,56.3,44.0,29.86,East,101,0.0,-999.0,63,-99.99,,,0.16,weatherlink.com 1.10,2013-03-31 09:41:00,
2013-03-31 04:56:00,56.1,44.0,29.87,SW,214,0.0,-999.0,64,-99.99,,,0.16,weatherlink.com 1.10,2013-03-31 09:56:00,
2013-03-31 05:11:00,55.7,43.0,29.86,WSW,240,0.0,-999.0,63,-99.99,,,0.16,weatherlink.com 1.10,2013-03-31 10:11:00,
2013-03-31 05:26:00,56.0,43.0,29.87,SW,225,1.0,-999.0,62,-99.99,,,0.16,weatherlink.com 1.10,2013-03-31 10:26:00,
2013-03-31 05:41:00,55.6,43.0,29.88,SW,230,2.0,-999.0,62,-99.99,,,0.16,weatherlink.com 1.10,2013-03-31 10:41:00,
2013-03-31 05:56:00,55.8,43.0,29.87,SW,227,1.0,-999.0,63,-99.99,,,0.16,weatherlink.com 1.10,2013-03-31 10:56:00,
2013-03-31 06:11:00,55.8,43.0,29.86,SW,228,2.0,-999.0,63,-99.99,,,0.16,weatherlink.com 1.10,2013-03-31 11:11:00,
2013-03-31 06:26:00,56.1,43.0,29.88,WSW,238,2.0,-999.0,63,-99.99,,,0.16,weatherlink.com 1.10,2013-03-31 11:26:00,
2013-03-31 06:41:00,56.2,44.0,29.88,SW,235,3.0,-999.0,64,-99.99,,,0.16,weatherlink.com 1.10,2013-03-31 11:41:00,
2013-03-31 06:56:00,56.6,44.0,29.88,WSW,239,2.0,-999.0,64,-99.99,,,0.16,weatherlink.com 1.10,2013-03-31 11:56:00,
2013-03-31 07:11:00,56.9,45.0,29.90,WSW,240,1.0,-999.0,64,-99.99,,,0.16,weatherlink.com 1.10,2013-03-31 12:11:00,
2013-03-31 07:26:00,57.5,46.0,29.90,WSW,253,0.0,-999.0,65,-99.99,,,0.16,weatherlink.com 1.10,2013-03-31 12:26:00,
2013-03-31 07:41:00,57.5,46.0,29.90,West,275,0.0,-999.0,65,-99.99,,,0.16,weatherlink.com 1.10,2013-03-31 12:41:00,
2013-03-31 08:11:00,57.7,46.0,29.91,NW,305,6.0,-999.0,65,-99.99,,,0.16,weatherlink.com 1.10,2013-03-31 13:11:00,
2013-03-31 08:26:00,56.5,45.0,29.92,NW,320,11.0,-999.0,65,-99.99,,,0.17,weatherlink.com 1.10,2013-03-31 13:26:00,
2013-03-31 08:41:00,56.2,44.0,29.93,NW,317,10.0,-999.0,64,-99.99,,,0.17,weatherlink.com 1.10,2013-03-31 13:41:00,
2013-03-31 08:56:00,55.3,44.0,29.94,NW,319,10.0,-999.0,65,-99.99,,,0.17,weatherlink.com 1.10,2013-03-31 13:56:00,
2013-03-31 09:11:00,54.9,44.0,29.95,NW,325,6.0,-999.0,68,-99.99,,,0.17,weatherlink.com 1.10,2013-03-31 14:11:00,
2013-03-31 09:41:00,53.3,43.0,29.93,NNE,32,7.0,-999.0,69,-99.99,,,0.18,weatherlink.com 1.10,2013-03-31 14:41:00,
2013-03-31 09:56:00,51.8,42.0,29.93,NE,42,11.0,-999.0,69,-99.99,,,0.18,weatherlink.com 1.10,2013-03-31 14:56:00,
2013-03-31 10:26:00,51.7,42.0,29.93,ENE,57,8.0,-999.0,69,-99.99,,,0.18,weatherlink.com 1.10,2013-03-31 15:26:00,
2013-03-31 10:41:00,51.5,43.0,29.94,NE,46,10.0,-999.0,72,-99.99,,,0.18,weatherlink.com 1.10,2013-03-31 15:41:00,
2013-03-31 10:56:00,51.5,44.0,29.94,ENE,70,0.0,-999.0,76,-99.99,,,0.18,weatherlink.com 1.10,2013-03-31 15:56:00,
2013-03-31 11:11:00,51.8,44.0,29.94,NE,53,10.0,-999.0,75,-99.99,,,0.18,weatherlink.com 1.10,2013-03-31 16:11:00,
2013-03-31 11:26:00,51.6,43.0,29.94,ENE,66,12.0,-999.0,73,-99.99,,,0.18,weatherlink.com 1.10,2013-03-31 16:26:00,
2013-03-31 11:41:00,52.0,43.0,29.95,ENE,69,5.0,-999.0,72,-99.99,,,0.18,weatherlink.com 1.10,2013-03-31 16:41:00,
2013-03-31 11:56:00,52.6,45.0,29.95,ENE,69,3.0,-999.0,74,-99.99,,,0.18,weatherlink.com 1.10,2013-03-31 16:56:00,
2013-03-31 12:11:00,53.0,46.0,29.96,ENE,64,0.0,-999.0,76,-99.99,,,0.18,weatherlink.com 1.10,2013-03-31 17:11:00,
2013-03-31 12:26:00,53.6,46.0,29.96,ENE,64,0.0,-999.0,74,-99.99,,,0.18,weatherlink.com 1.10,2013-03-31 17:26:00,
2013-03-31 12:41:00,54.2,46.0,29.96,ENE,64,1.0,-999.0,75,-99.99,,,0.18,weatherlink.com 1.10,2013-03-31 17:41:00,
2013-03-31 12:56:00,54.5,47.0,29.96,ENE,64,0.0,-999.0,75,-99.99,,,0.18,weatherlink.com 1.10,2013-03-31 17:56:00,
2013-03-31 13:11:00,54.9,47.0,29.95,ENE,64,0.0,-999.0,75,-99.99,,,0.18,weatherlink.com 1.10,2013-03-31 18:11:00,
2013-03-31 13:26:00,55.7,48.0,29.95,ENE,64,0.0,-999.0,76,-99.99,,,0.18,weatherlink.com 1.10,2013-03-31 18:26:00,
2013-03-31 13:41:00,55.8,48.0,29.95,ENE,64,0.0,-999.0,76,-99.99,,,0.18,weatherlink.com 1.10,2013-03-31 18:41:00,
2013-03-31 13:56:00,56.5,49.0,29.95,ENE,64,0.0,-999.0,76,-99.99,,,0.18,weatherlink.com 1.10,2013-03-31 18:56:00,
2013-03-31 14:11:00,56.4,49.0,29.94,ENE,63,4.0,-999.0,77,-99.99,,,0.18,weatherlink.com 1.10,2013-03-31 19:11:00,
2013-03-31 14:26:00,56.5,49.0,29.93,ENE,67,1.0,-999.0,76,-99.99,,,0.18,weatherlink.com 1.10,2013-03-31 19:26:00,
2013-03-31 14:41:00,57.6,50.0,29.93,ENE,61,5.0,-999.0,76,-99.99,,,0.18,weatherlink.com 1.10,2013-03-31 19:41:00,
2013-03-31 14:56:00,58.1,50.0,29.93,NE,55,0.0,-999.0,75,-99.99,,,0.18,weatherlink.com 1.10,2013-03-31 19:56:00,
2013-03-31 15:11:00,58.8,51.0,29.93,NE,50,0.0,-999.0,74,-99.99,,,0.18,weatherlink.com 1.10,2013-03-31 20:11:00,
2013-03-31 15:26:00,58.6,50.0,29.93,NNE,31,7.0,-999.0,72,-99.99,,,0.18,weatherlink.com 1.10,2013-03-31 20:26:00,
2013-03-31 15:41:00,58.4,50.0,29.93,ENE,59,6.0,-999.0,73,-99.99,,,0.18,weatherlink.com 1.10,2013-03-31 20:41:00,
2013-03-31 15:56:00,58.8,50.0,29.93,NE,55,0.0,-999.0,73,-99.99,,,0.18,weatherlink.com 1.10,2013-03-31 20:56:00,
2013-03-31 16:11:00,58.9,49.0,29.93,NE,55,0.0,-999.0,71,-99.99,,,0.18,weatherlink.com 1.10,2013-03-31 21:11:00,
2013-03-31 16:26:00,60.0,50.0,29.92,NE,55,0.0,-999.0,69,-99.99,,,0.18,weatherlink.com 1.10,2013-03-31 21:26:00,
2013-03-31 16:41:00,59.8,50.0,29.91,NE,55,0.0,-999.0,69,-99.99,,,0.18,weatherlink.com 1.10,2013-03-31 21:41:00,
2013-03-31 16:56:00,60.4,51.0,29.92,NE,55,0.0,-999.0,70,-99.99,,,0.18,weatherlink.com 1.10,2013-03-31 21:56:00,
2013-03-31 17:11:00,60.9,51.0,29.92,NE,55,0.0,-999.0,70,-99.99,,,0.18,weatherlink.com 1.10,2013-03-31 22:11:00,
2013-03-31 17:26:00,60.9,52.0,29.91,South,190,0.0,-999.0,72,-99.99,,,0.18,weatherlink.com 1.10,2013-03-31 22:26:00,
2013-03-31 18:41:00,59.6,51.0,29.91,SW,226,0.0,-999.0,73,-99.99,,,0.18,weatherlink.com 1.10,2013-03-31 23:41:00,
2013-03-31 18:56:00,59.1,50.0,29.92,SW,221,1.0,-999.0,73,-99.99,,,0.18,weatherlink.com 1.10,2013-03-31 23:56:00,
2013-03-31 19:11:00,58.7,50.0,29.92,SW,232,1.0,-999.0,74,-99.99,,,0.18,weatherlink.com 1.10,2013-04-01 00:11:00,
2013-03-31 19:26:00,58.2,50.0,29.92,SW,231,0.0,-999.0,74,-99.99,,,0.18,weatherlink.com 1.10,2013-04-01 00:26:00,
2013-03-31 19:56:00,57.3,49.0,29.93,SW,234,1.0,-999.0,75,-99.99,,,0.18,weatherlink.com 1.10,2013-04-01 00:56:00,
2013-03-31 20:11:00,57.1,50.0,29.93,SW,235,0.0,-999.0,76,-99.99,,,0.18,weatherlink.com 1.10,2013-04-01 01:11:00,
2013-03-31 20:26:00,57.1,49.0,29.93,WSW,247,0.0,-999.0,75,-99.99,,,0.18,weatherlink.com 1.10,2013-04-01 01:26:00,
2013-03-31 20:56:00,56.8,49.0,29.93,WSW,245,0.0,-999.0,76,-99.99,,,0.18,weatherlink.com 1.10,2013-04-01 01:56:00,
2013-03-31 21:11:00,56.6,49.0,29.94,WSW,242,1.0,-999.0,76,-99.99,,,0.18,weatherlink.com 1.10,2013-04-01 02:11:00,
2013-03-31 21:26:00,56.7,49.0,29.94,WSW,240,0.0,-999.0,76,-99.99,,,0.18,weatherlink.com 1.10,2013-04-01 02:26:00,
2013-03-31 21:41:00,56.9,49.0,29.94,WSW,239,1.0,-999.0,76,-99.99,,,0.18,weatherlink.com 1.10,2013-04-01 02:41:00,
2013-03-31 22:11:00,56.9,49.0,29.95,WSW,239,3.0,-999.0,76,-99.99,,,0.18,weatherlink.com 1.10,2013-04-01 03:11:00,
2013-03-31 22:26:00,56.9,49.0,29.95,WSW,238,3.0,-999.0,76,-99.99,,,0.18,weatherlink.com 1.10,2013-04-01 03:26:00,
2013-03-31 22:41:00,57.0,49.0,29.95,SW,236,5.0,-999.0,75,-99.99,,,0.18,weatherlink.com 1.10,2013-04-01 03:41:00,
2013-03-31 22:56:00,56.9,49.0,29.95,WSW,238,1.0,-999.0,75,-99.99,,,0.18,weatherlink.com 1.10,2013-04-01 03:56:00,
2013-03-31 23:41:00,57.0,49.0,29.96,WSW,240,0.0,-999.0,75,-99.99,,,0.18,weatherlink.com 1.10,2013-04-01 04:41:00,
2013-03-31 23:56:00,57.0,49.0,29.96,WSW,240,0.0,-999.0,74,-99.99,,,0.00,weatherlink.com 1.10,2013-04-01 04:56:00,